| time (UTC) | temp F | wind direction | speed MPH | gust MPH | rain 1hr in | rain 24hr in | rain mn in | humidity % | barometer mb |
| 20260831121610 | 74 | 134 | 0.0 | 1.0 | 0.00 | 0.00 | 0.00 | 71 | 1018.4 |
| 20260831120048 | 74 | 141 | 0.0 | 1.0 | 0.00 | 0.00 | 0.00 | 70 | 1018.2 |
| 20260831114547 | 74 | 0 | 0.0 | 1.0 | 0.00 | 0.00 | 0.00 | 69 | 1017.9 |
| 20260831113105 | 75 | 124 | 0.0 | 4.0 | 0.00 | 0.00 | 0.00 | 68 | 1017.8 |
| 20260831111554 | 75 | 148 | 1.0 | 3.0 | 0.00 | 0.00 | 0.00 | 68 | 1017.7 |
| 20260831110048 | 75 | 175 | 1.0 | 4.0 | 0.00 | 0.00 | 0.00 | 67 | 1017.8 |
| 20260831104603 | 75 | 86 | 1.0 | 4.0 | 0.00 | 0.00 | 0.00 | 67 | 1017.7 |
| 20260831103054 | 76 | 222 | 0.0 | 4.0 | 0.00 | 0.00 | 0.00 | 66 | 1017.7 |
| 20260831101555 | 76 | 141 | 1.0 | 3.0 | 0.00 | 0.00 | 0.00 | 66 | 1017.4 |
| 20260831100119 | 76 | 155 | 1.0 | 4.0 | 0.00 | 0.00 | 0.00 | 65 | 1017.5 |
| 20260831100048 | 76 | 155 | 1.0 | 4.0 | 0.00 | 0.00 | 0.00 | 65 | 1017.5 |
| 20260831094606 | 76 | 108 | 0.0 | 4.0 | 0.00 | 0.00 | 0.00 | 64 | 1017.5 |
| 20260831093142 | 76 | 176 | 1.0 | 3.0 | 0.00 | 0.00 | 0.00 | 64 | 1017.2 |
| 20260831091552 | 77 | 127 | 0.0 | 3.0 | 0.00 | 0.00 | 0.00 | 64 | 1017.3 |
| 20260831090046 | 77 | 150 | 1.0 | 4.0 | 0.00 | 0.00 | 0.00 | 63 | 1017.3 |
| 20260831084630 | 77 | 169 | 0.0 | 3.0 | 0.00 | 0.00 | 0.00 | 63 | 1017.1 |
| 20260831083106 | 77 | 143 | 1.0 | 3.0 | 0.00 | 0.00 | 0.00 | 63 | 1017.1 |
| 20260831081549 | 78 | 125 | 1.0 | 5.0 | 0.00 | 0.00 | 0.00 | 62 | 1016.9 |
| 20260831080118 | 78 | 162 | 2.0 | 6.0 | 0.00 | 0.00 | 0.00 | 62 | 1016.6 |
| 20260831074559 | 78 | 139 | 1.0 | 5.0 | 0.00 | 0.00 | 0.00 | 62 | 1016.7 |
| 20260831073055 | 79 | 160 | 1.0 | 7.0 | 0.00 | 0.00 | 0.00 | 61 | 1016.6 |
| 20260831071553 | 79 | 182 | 3.0 | 7.0 | 0.00 | 0.00 | 0.00 | 61 | 1016.5 |
| 20260831070100 | 79 | 141 | 3.0 | 9.0 | 0.00 | 0.00 | 0.00 | 62 | 1016.7 |
| 20260831064556 | 79 | 193 | 2.0 | 11.0 | 0.00 | 0.00 | 0.00 | 62 | 1017.0 |
| 20260831063103 | 79 | 169 | 2.0 | 7.0 | 0.00 | 0.00 | 0.00 | 63 | 1016.8 |
| 20260831061557 | 79 | 162 | 3.0 | 7.0 | 0.00 | 0.00 | 0.00 | 63 | 1016.7 |
| 20260831060105 | 79 | 123 | 2.0 | 5.0 | 0.00 | 0.00 | 0.00 | 63 | 1016.8 |
| 20260831054553 | 80 | 124 | 2.0 | 7.0 | 0.00 | 0.00 | 0.00 | 63 | 1016.9 |
| 20260831053059 | 80 | 119 | 1.0 | 6.0 | 0.00 | 0.00 | 0.00 | 63 | 1016.7 |
| 20260831051550 | 80 | 158 | 2.0 | 6.0 | 0.00 | 0.00 | 0.00 | 62 | 1016.7 |
| 20260831050047 | 81 | 151 | 3.0 | 6.0 | 0.00 | 0.00 | 0.00 | 60 | 1016.6 |
| 20260831044549 | 81 | 194 | 2.0 | 6.0 | 0.00 | 0.00 | 0.00 | 60 | 1016.6 |
| 20260831043051 | 81 | 149 | 2.0 | 5.0 | 0.00 | 0.00 | 0.00 | 59 | 1016.5 |
| 20260831041556 | 82 | 184 | 2.0 | 5.0 | 0.00 | 0.00 | 0.00 | 58 | 1016.5 |
| 20260831040057 | 82 | 162 | 1.0 | 4.0 | 0.00 | 0.00 | 0.00 | 57 | 1016.4 |
| 20260831034556 | 82 | 146 | 1.0 | 3.0 | 0.00 | 0.00 | 0.00 | 56 | 1016.3 |
| 20260831033054 | 82 | 127 | 2.0 | 3.0 | 0.00 | 0.00 | 0.00 | 55 | 1016.3 |
| 20260831031556 | 83 | 155 | 0.0 | 3.0 | 0.00 | 0.00 | 0.00 | 54 | 1016.2 |
| 20260831030054 | 83 | 136 | 1.0 | 3.0 | 0.00 | 0.00 | 0.00 | 53 | 1015.9 |
| 20260831024556 | 83 | 146 | 1.0 | 2.0 | 0.00 | 0.00 | 0.00 | 52 | 1015.6 |
| 20260831023051 | 83 | 129 | 1.0 | 3.0 | 0.00 | 0.00 | 0.00 | 53 | 1015.5 |
| 20260831021554 | 82 | 145 | 0.0 | 1.0 | 0.00 | 0.00 | 0.00 | 54 | 1015.4 |
| 20260831020050 | 84 | 0 | 0.0 | 1.0 | 0.00 | 0.00 | 0.00 | 53 | 1015.3 |
| 20260831014549 | 84 | 0 | 0.0 | 2.0 | 0.00 | 0.00 | 0.00 | 52 | 1015.1 |
| 20260831013057 | 85 | 0 | 0.0 | 1.0 | 0.00 | 0.00 | 0.00 | 52 | 1015.0 |
| 20260831011558 | 86 | 139 | 0.0 | 1.0 | 0.00 | 0.00 | 0.00 | 50 | 1014.9 |
| 20260831010053 | 88 | 0 | 0.0 | 0.0 | 0.00 | 0.00 | 0.00 | 48 | 1014.9 |
| 20260831004546 | 90 | 0 | 0.0 | 1.0 | 0.00 | 0.00 | 0.00 | 45 | 1014.8 |
| 20260831003054 | 92 | 136 | 0.0 | 1.0 | 0.00 | 0.00 | 0.00 | 42 | 1014.9 |
| 20260831001618 | 93 | 202 | 0.0 | 2.0 | 0.00 | 0.00 | 0.00 | 40 | 1014.9 |
| 20260831000054 | 94 | 212 | 1.0 | 3.0 | 0.00 | 0.00 | 0.00 | 39 | 1014.8 |
| 20260830234549 | 95 | 240 | 2.0 | 10.0 | 0.00 | 0.00 | 0.00 | 38 | 1014.8 |
| 20260830233106 | 96 | 243 | 2.0 | 8.0 | 0.00 | 0.00 | 0.00 | 38 | 1014.9 |
| 20260830231559 | 96 | 274 | 2.0 | 5.0 | 0.00 | 0.00 | 0.00 | 37 | 1015.0 |
| 20260830230104 | 96 | 281 | 4.0 | 9.0 | 0.00 | 0.00 | 0.00 | 36 | 1014.8 |
| 20260830224547 | 97 | 241 | 5.0 | 10.0 | 0.00 | 0.00 | 0.00 | 35 | 1015.0 |
| 20260830223045 | 99 | 229 | 1.0 | 8.0 | 0.00 | 0.00 | 0.00 | 36 | 1014.8 |
| 20260830221556 | 98 | 271 | 3.0 | 9.0 | 0.00 | 0.00 | 0.00 | 34 | 1014.9 |
| 20260830220050 | 100 | 234 | 2.0 | 9.0 | 0.00 | 0.00 | 0.00 | 35 | 1014.9 |
| 20260830214555 | 100 | 239 | 4.0 | 9.0 | 0.00 | 0.00 | 0.00 | 35 | 1015.0 |
| 20260830213102 | 101 | 250 | 4.0 | 11.0 | 0.00 | 0.00 | 0.00 | 34 | 1015.1 |
| 20260830211558 | 100 | 251 | 5.0 | 12.0 | 0.00 | 0.00 | 0.00 | 34 | 1015.2 |
| 20260830210105 | 100 | 238 | 4.0 | 11.0 | 0.00 | 0.00 | 0.00 | 35 | 1015.4 |
| 20260830204557 | 100 | 117 | 3.0 | 12.0 | 0.00 | 0.00 | 0.00 | 35 | 1015.4 |
| 20260830203051 | 100 | 245 | 6.0 | 15.0 | 0.00 | 0.00 | 0.00 | 36 | 1015.2 |
| 20260830201604 | 100 | 258 | 5.0 | 15.0 | 0.00 | 0.00 | 0.00 | 36 | 1015.7 |
| 20260830200100 | 99 | 222 | 5.0 | 12.0 | 0.00 | 0.00 | 0.00 | 37 | 1015.8 |
| 20260830194601 | 99 | 232 | 3.0 | 9.0 | 0.00 | 0.00 | 0.00 | 39 | 1016.0 |
| 20260830193048 | 99 | 295 | 4.0 | 13.0 | 0.00 | 0.00 | 0.00 | 39 | 1016.2 |
| 20260830191606 | 99 | 244 | 4.0 | 12.0 | 0.00 | 0.00 | 0.00 | 38 | 1016.3 |
| 20260830190101 | 99 | 285 | 3.0 | 11.0 | 0.00 | 0.00 | 0.00 | 40 | 1016.5 |
| 20260830184552 | 98 | 240 | 3.0 | 11.0 | 0.00 | 0.00 | 0.00 | 40 | 1016.7 |
| 20260830183051 | 97 | 224 | 3.0 | 10.0 | 0.00 | 0.00 | 0.00 | 42 | 1017.1 |
| 20260830181559 | 96 | 246 | 4.0 | 14.0 | 0.00 | 0.00 | 0.00 | 43 | 1017.1 |
| 20260830180055 | 96 | 234 | 4.0 | 13.0 | 0.00 | 0.00 | 0.00 | 42 | 1017.1 |
| 20260830174547 | 95 | 212 | 5.0 | 15.0 | 0.00 | 0.00 | 0.00 | 41 | 1017.4 |
| 20260830173046 | 96 | 234 | 4.0 | 13.0 | 0.00 | 0.00 | 0.00 | 42 | 1017.6 |
| 20260830171552 | 94 | 257 | 4.0 | 14.0 | 0.00 | 0.00 | 0.00 | 44 | 1018.0 |
| 20260830170052 | 93 | 210 | 5.0 | 13.0 | 0.00 | 0.00 | 0.00 | 44 | 1018.1 |
| 20260830164558 | 92 | 278 | 7.0 | 14.0 | 0.00 | 0.00 | 0.00 | 45 | 1018.3 |
| 20260830163100 | 92 | 233 | 6.0 | 13.0 | 0.00 | 0.00 | 0.00 | 45 | 1018.4 |
| 20260830161551 | 90 | 266 | 6.0 | 11.0 | 0.00 | 0.00 | 0.00 | 46 | 1018.2 |
| 20260830160059 | 89 | 237 | 6.0 | 13.0 | 0.00 | 0.00 | 0.00 | 48 | 1018.2 |
| 20260830154556 | 88 | 273 | 7.0 | 12.0 | 0.00 | 0.00 | 0.00 | 48 | 1018.5 |
| 20260830153054 | 87 | 259 | 8.0 | 14.0 | 0.00 | 0.00 | 0.00 | 49 | 1018.5 |
| 20260830151549 | 87 | 243 | 6.0 | 16.0 | 0.00 | 0.00 | 0.00 | 50 | 1018.5 |
| 20260830150049 | 86 | 245 | 3.0 | 10.0 | 0.00 | 0.00 | 0.00 | 52 | 1018.4 |
| 20260830144603 | 85 | 250 | 3.0 | 16.0 | 0.00 | 0.00 | 0.00 | 53 | 1018.5 |
| 20260830143054 | 83 | 271 | 4.0 | 12.0 | 0.00 | 0.00 | 0.00 | 56 | 1018.4 |
| 20260830141546 | 82 | 227 | 4.0 | 9.0 | 0.00 | 0.00 | 0.00 | 57 | 1018.4 |
| 20260830140057 | 80 | 243 | 5.0 | 10.0 | 0.00 | 0.00 | 0.00 | 59 | 1018.5 |
| 20260830134604 | 79 | 226 | 2.0 | 7.0 | 0.00 | 0.00 | 0.00 | 61 | 1018.4 |
| 20260830133049 | 78 | 179 | 3.0 | 8.0 | 0.00 | 0.00 | 0.00 | 62 | 1018.3 |
| 20260830131554 | 77 | 241 | 2.0 | 5.0 | 0.00 | 0.00 | 0.00 | 64 | 1018.5 |
| 20260830130106 | 75 | 142 | 0.0 | 4.0 | 0.00 | 0.00 | 0.00 | 67 | 1018.3 |
| 20260830124552 | 74 | 120 | 1.0 | 4.0 | 0.00 | 0.00 | 0.00 | 67 | 1018.1 |
| 20260830123051 | 73 | 0 | 1.0 | 3.0 | 0.00 | 0.00 | 0.00 | 67 | 1018.3 |